Domov               UVHVVR             MKGP            O straneh              
ZDRAVSTVENO VARSTVO RASTLIN
  MREŽA AGROMET. POSTAJ
 ► PROGNOSTIČNA OBVESTILA
AGROMETEOROLOŠKI PODATKI -
ARSO
OBVLADOVANJE TVEGANJ ZARADI
NEUGODNIH VREMENSKIH RAZMER
  ► NARAVNE NESREČE
  ► SUŠA/MOČA
  ► NAMAKANJE
  ► ŽLED (gozdarstvo)
KARTOGRAFSKI PRIKAZI
SPLETNE POVEZAVE
PROJEKTI IN PUBLIKACIJE

AGROMETEOROLOŠKA MREŽA: VREMENSKE POSTAJE IN FENOLOŠKA OPAZOVANJA

Pregled podatkov za lokacijo Gabrovka, meteorološka postaja 38756

Pregled senzorjev na lokaciji

ID Ime Zadnja
vrednost
Datum
zadnje
spremembe
Tip
senzorja
2042 Omočenost lista (U) 4 U 11.12.2017 09:30 A730WET
2045 Padavine (mm) 1 mm 11.12.2017 09:30 Rain-O-Matic
2064 Temperatura 2 m (°C) 8,3 °C 11.12.2017 09:30 50YA
2065 Relativna vlaga 2 m (% RH) 83,86 % RH 11.12.2017 09:30 50YA

Pregled podatkov zadnjih 24 ur

Zap.
št.
Datum in čas Gabrovka
Omočenost
lista
Padavine Relativna
vlaga
2
m
Temperatura
2
m
0 11.12.2017 09:30 4 1 83,86 8,3
1 11.12.2017 09:00 6 1 85,69 7,42
2 11.12.2017 08:30 7 0,8 88,86 6,52
3 11.12.2017 08:00 7 0,6 94,8 5,76
4 11.12.2017 07:30 6 0,6 99,56 4,35
5 11.12.2017 07:00 5 0,8 99,24 4,35
6 11.12.2017 06:30 4 0,8 98,73 4,42
7 11.12.2017 06:00 4 1,2 97,12 4,57
8 11.12.2017 05:30 3 1,2 98,93 4,88
9 11.12.2017 05:00 3 1 99,93 3,91
10 11.12.2017 04:30 3 1,4 99,93 2,88
11 11.12.2017 04:00 3 1,2 99,93 2,34
12 11.12.2017 03:30 4 0,8 99,93 2,15
13 11.12.2017 03:00 9 0,8 99,93 2,08
14 11.12.2017 02:30 9 0,4 99,93 1,56
15 11.12.2017 02:00 9 0,4 99,93 1,61
16 11.12.2017 01:30 8 0,4 99,93 0,93
17 11.12.2017 01:00 8 0,2 99,93 0,85
18 11.12.2017 00:30 7 0,4 99,93 0,83
19 11.12.2017 00:00 8 0,2 99,93 0,93
20 10.12.2017 23:30 10 0,2 99,88 0,81
21 10.12.2017 23:00 10 0,2 99,51 0,88
22 10.12.2017 22:30 10 0 98,85 0,88
23 10.12.2017 22:00 10 0 98,9 0,81
24 10.12.2017 21:30 9 0 98,97 0,63
25 10.12.2017 21:00 4 0 99,37 0,46
26 10.12.2017 20:30 3 0 99,63 0,24
27 10.12.2017 20:00 2 0 99,32 0,05
28 10.12.2017 19:30 1 0 99,24 -0,12
29 10.12.2017 19:00 1 0 98,8 -0,29
30 10.12.2017 18:30 1 0 97,61 -0,27
31 10.12.2017 18:00 2 0 95,9 0,12
32 10.12.2017 17:30 1 0,2 95,41 0,32
33 10.12.2017 17:00 4 0 96,24 0,34
34 10.12.2017 16:30 4 0 93,24 0,37
35 10.12.2017 16:00 9 0 90,62 0,22
36 10.12.2017 15:30 10 0,2 92,01 0,17
37 10.12.2017 15:00 10 0,2 90,96 0,2
38 10.12.2017 14:30 10 0,2 89,57 0,32
39 10.12.2017 14:00 10 0,4 89,79 0,54
40 10.12.2017 13:30 10 0,2 89,89 0,56
41 10.12.2017 13:00 10 0,4 91,48 0,02
42 10.12.2017 12:30 10 0,2 89,52 -0,42
43 10.12.2017 12:00 7 0,8 83,98 0,02
44 10.12.2017 11:30 1,2 73,97 1,73
45 10.12.2017 11:00 0,6 72,92 2,56
© 2011 Ministrstvo za kmetijstvo, gozdarstvo in prehrano. Vse pravice pridržane.